Regional Weather Roundup
Issued by NWS Bismarck, ND

Home | Current Version | Previous Version | Text Only | Print | Product List | Glossary On
Versions: 1 2 3 4 5 6 7 8 9 10 11 12 13 14 15 16 17 18 19 20 21 22 23 24 25 26 27 28 29 30 31 32 33 34 35 36 37 38 39 40 41 42 43 44 45 46 47 48 49 50
000
ASUS43 KBIS 032210
RWRBIS

NWR BROADCAST TEXT
NATIONAL WEATHER SERVICE BISMARCK ND
500 PM CDT MON AUG 03 2015

NOTE: "FAIR" INDICATES FEW OR NO CLOUDS BELOW 12,000 FEET WITH NO
SIGNIFICANT WEATHER AND/OR OBSTRUCTIONS TO VISIBILITY.


CITY           SKY/WX    TMP DP  RH WIND       PRES   REMARKS
WILLISTON      SUNNY     83  43  24 E7        29.97F
MINOT          SUNNY     80  42  25 W10       29.97F
MINOT AFB      SUNNY     82  44  25 N9        29.96F
BISMARCK       SUNNY     82  47  29 VRB5      29.97F
DICKINSON      SUNNY     82  48  30 VRB3      29.97F
GARRISON         N/A     79  50  36 N8        29.98F
HETTINGER ARPT SUNNY     84  49  29 VRB3      29.99F
JAMESTOWN      SUNNY     77  45  32 NW5       29.97S
HAZEN          FAIR      81  45  28 NW8       29.99S
STANLEY        FAIR      77  48  36 N8        30.01S
$$

CITY           SKY/WX    TMP DP  RH WIND       PRES   REMARKS
GRAND FORKS    MOSUNNY   78  48  34 NW13      29.91S
GRAND FORKS AF SUNNY     77  47  35 N14       29.93S
DEVILS LAKE    SUNNY     77  43  29 NW12G18   29.95S
FARGO          SUNNY     80  46  30 NW12G25   29.92S
CAVALIER       FAIR      77  46  33 NW9G17    29.91F
GRAFTON        FAIR      77  48  36 NW9G17    29.92S
GWINNER        FAIR      79  48  34 NW9       29.96S
LANGDON        FAIR      77  43  29 NW18      29.95S
$$

CITY           SKY/WX    TMP DP  RH WIND       PRES   REMARKS
ABERDEEN       SUNNY     82  49  31 N6        29.96S
MOBRIDGE       SUNNY     86  55  34 N7        29.94F
BUFFALO          N/A     85  49  28 SE9       29.92F
RAPID CITY     PTSUNNY   83  60  45 SE10      29.97F
GLASGOW        SUNNY     87  47  24 SE12      29.92F
SIDNEY         SUNNY    N/A N/A N/A NW5       29.95F
WOLF POINT     SUNNY     88  46  23 E8        29.93F
GLENDIVE         N/A    N/A N/A N/A MISG        N/A
MILES CITY     SUNNY     92  47  21 SE10G16   29.90F
BAKER          SUNNY     88  47  24 NE7       29.98F
$$

CITY           SKY/WX    TMP DP  RH WIND       PRES   REMARKS
BILLINGS       CLOUDY    90  45  21 E14       29.90F
GREAT FALLS    SUNNY     94  45  18 NE8       29.84F HX  90
REGINA         MOSUNNY   81  50  34 VRB3      29.99F
ESTEVAN        MOSUNNY   81  50  34 NW8       29.99F
$$




USA.gov is the U.S. government's official web portal to all federal, state and local government web resources and services.